User: anonymous   Login
Location: Unspecified
(0.0000°N, 0.0000°E)
Time: 09:02:48
(UTC+00:00)
Language:

FO-99 - Orbit

View from above orbital plane
View from above orbital plane
View from above satellite
View from above satellite

Ground track
Ground track

The orbit data is extracted from the following two-line orbital elements,

1 43937U 19003F   22272.82235321  .00016253  00000-0  50870-3 0  9990
2 43937  97.1225 302.2226 0021052 136.3564 223.9348 15.32968511205952
Epoch (UTC): 29 September 2022 19:44:11
Eccentricity: 0.0021052
inclination: 97.1225°
perigee height: 452 km
apogee height: 481 km
right ascension of ascending node: 302.2226°
argument of perigee: 136.3564°
revolutions per day: 15.32968511
mean anomaly at epoch: 223.9348°
orbit number at epoch: 20595

The dashed part of the orbit path shows where the satellite is in the earth's shadow,  

DLR